QFA7 YSSY-KDFW

Flight info

Callsign QFA7
Flight time N/A
Altitude 31000
Route DIPSO G595 SOTKI DCT 3314S15623E 3045S16121E 2954S16300E 2844S16508E 2627S16902E/N0497F330 2358S17253E 2224S17503E 1907S17901E 1535S17636W 1436S17514W 1312S17321W 0949S16844W/N0501F350 0833S16704W 0703S16511W 0500S16249W 0325S16100W 0112S15830W 0254N15408W 0610N15050W 0932N14715W/N0491F370 1220N14352W 1413N14123W 1653N13714W 1920N13224W 2147N12701W 2417N12142W/N0482F390 2508N12000W 2613N11743W 2655N11620W DCT GRN DCT HMO DCT ILAMA DCT WASIX DCT GEEKY DCT BOOVE SHMPP3
Aircraft A388/J-SADE2E3FGHIJ3J4J5M1RWXY/LB1D1

Departure

Time 2026-05-07 22:00
Airport Sydney Kingsford Smith International Airport (YSSY)

Arrival

Time N/A
Airport Dallas Fort Worth International Airport (KDFW)
Time Latitude Longitude Altitude Speed Heading
2026-05-07 21:33 -33.93618 151.16921 35 ft 0 kts 178°
2026-05-07 21:47 -33.93613 151.16921 35 ft 2 kts 178°
2026-05-07 21:47 -33.93597 151.16920 33 ft 2 kts 178°
2026-05-07 21:47 -33.93581 151.16919 34 ft 2 kts 178°
2026-05-07 21:47 -33.93564 151.16918 34 ft 2 kts 177°
2026-05-07 21:48 -33.93548 151.16918 34 ft 2 kts 177°
2026-05-07 21:48 -33.93532 151.16917 34 ft 2 kts 177°
2026-05-07 21:48 -33.93515 151.16916 35 ft 2 kts 176°
2026-05-07 21:48 -33.93499 151.16914 34 ft 2 kts 176°
2026-05-07 21:49 -33.93483 151.16913 33 ft 2 kts 175°
2026-05-07 21:49 -33.93466 151.16911 35 ft 2 kts 174°
2026-05-07 21:49 -33.93450 151.16908 33 ft 2 kts 168°
2026-05-07 21:49 -33.93448 151.16907 34 ft 0 kts 167°
2026-05-07 21:52 -33.93512 151.16984 35 ft 12 kts 93°
2026-05-07 21:52 -33.93528 151.17071 34 ft 11 kts 135°
2026-05-07 21:53 -33.93600 151.17128 34 ft 15 kts 159°
2026-05-07 21:53 -33.93715 151.17158 34 ft 19 kts 168°
2026-05-07 21:53 -33.93861 151.17194 34 ft 24 kts 168°
2026-05-07 21:53 -33.94034 151.17238 34 ft 27 kts 168°
2026-05-07 21:54 -33.94207 151.17284 34 ft 26 kts 167°
2026-05-07 21:54 -33.94360 151.17325 35 ft 20 kts 167°
2026-05-07 21:54 -33.94510 151.17366 35 ft 24 kts 166°
2026-05-07 21:54 -33.94672 151.17416 35 ft 25 kts 175°
2026-05-07 21:55 -33.94855 151.17454 34 ft 28 kts 168°
2026-05-07 21:55 -33.95044 151.17503 34 ft 19 kts 168°
2026-05-07 21:55 -33.95190 151.17541 34 ft 24 kts 168°
2026-05-07 21:55 -33.95365 151.17586 34 ft 27 kts 168°
2026-05-07 21:56 -33.95564 151.17637 35 ft 31 kts 168°
2026-05-07 21:56 -33.95779 151.17693 35 ft 30 kts 168°
2026-05-07 21:56 -33.95990 151.17747 35 ft 32 kts 168°
2026-05-07 21:56 -33.96112 151.17779 35 ft 15 kts 168°
2026-05-07 21:57 -33.96233 151.17810 35 ft 20 kts 168°
2026-05-07 21:57 -33.96306 151.17829 35 ft 1 kts 168°
2026-05-07 21:57 -33.96328 151.17835 35 ft 5 kts 168°
2026-05-07 21:57 -33.96379 151.17851 35 ft 10 kts 157°
2026-05-07 21:58 -33.96432 151.17918 35 ft 13 kts 104°
2026-05-07 21:58 -33.96408 151.18030 35 ft 15 kts 41°
2026-05-07 21:58 -33.96336 151.18044 34 ft 8 kts 345°
2026-05-07 21:58 -33.96334 151.18043 34 ft 0 kts 345°
2026-05-07 21:59 -33.96331 151.18043 34 ft 2 kts 345°
2026-05-07 21:59 -33.96177 151.18000 32 ft 55 kts 348°
2026-05-07 21:59 -33.95585 151.17844 34 ft 115 kts 347°
2026-05-07 21:59 -33.94659 151.17600 36 ft 155 kts 347°
2026-05-07 22:00 -33.93526 151.17316 99 ft 175 kts 348°
2026-05-07 22:00 -33.92313 151.17058 379 ft 179 kts 348°
2026-05-07 22:00 -33.91073 151.16834 738 ft 181 kts 347°
2026-05-07 22:00 -33.89815 151.16631 1085 ft 187 kts 345°
2026-05-07 22:01 -33.88497 151.16520 1460 ft 196 kts 359°
2026-05-07 22:01 -33.87189 151.17158 1747 ft 210 kts 33°
2026-05-07 22:01 -33.86299 151.18650 1755 ft 231 kts 72°
2026-05-07 22:01 -33.86177 151.20580 1902 ft 234 kts 105°
2026-05-07 22:02 -33.86572 151.22466 2004 ft 237 kts 112°
2026-05-07 22:02 -33.86981 151.24423 2084 ft 246 kts 107°
2026-05-07 22:02 -33.87264 151.26538 2167 ft 266 kts 101°
2026-05-07 22:02 -33.87444 151.28828 2384 ft 282 kts 97°
2026-05-07 22:03 -33.87563 151.31209 2829 ft 285 kts 97°
2026-05-07 22:03 -33.87654 151.33553 3611 ft 275 kts 96°
2026-05-07 22:03 -33.87739 151.35838 4055 ft 282 kts 99°
2026-05-07 22:03 -33.87840 151.38204 4588 ft 282 kts 99°
2026-05-07 22:04 -33.87941 151.40563 5150 ft 281 kts 98°
2026-05-07 22:04 -33.88042 151.42920 5656 ft 283 kts 99°
2026-05-07 22:04 -33.88143 151.45297 6127 ft 287 kts 99°
2026-05-07 22:04 -33.88248 151.47713 6611 ft 290 kts 99°
2026-05-07 22:05 -33.88353 151.50146 7049 ft 293 kts 98°
2026-05-07 22:05 -33.88457 151.52589 7493 ft 296 kts 98°
2026-05-07 22:05 -33.88560 151.55042 7916 ft 300 kts 98°
2026-05-07 22:05 -33.88666 151.57557 8310 ft 303 kts 98°
2026-05-07 22:06 -33.88774 151.60109 8723 ft 308 kts 98°
2026-05-07 22:06 -33.88880 151.62690 9252 ft 310 kts 98°
2026-05-07 22:06 -33.88988 151.65292 9721 ft 315 kts 98°
2026-05-07 22:06 -33.89098 151.67939 10194 ft 318 kts 98°
2026-05-07 22:07 -33.89211 151.70644 10368 ft 331 kts 98°
2026-05-07 22:07 -33.89330 151.73436 10511 ft 345 kts 98°
2026-05-07 22:07 -33.89451 151.76376 10643 ft 358 kts 97°
2026-05-07 22:07 -33.89574 151.79418 10840 ft 369 kts 97°
2026-05-07 22:08 -33.89695 151.82509 11243 ft 372 kts 97°
2026-05-07 22:08 -33.89816 151.85637 11648 ft 375 kts 97°
2026-05-07 22:08 -33.89939 151.88791 12058 ft 379 kts 97°
2026-05-07 22:08 -33.90063 151.91972 12485 ft 381 kts 97°
2026-05-07 22:09 -33.90188 151.95173 12887 ft 385 kts 97°
2026-05-07 22:09 -33.90313 151.98366 13300 ft 389 kts 97°
2026-05-07 22:09 -33.90438 152.01631 13713 ft 392 kts 97°
2026-05-07 22:09 -33.90564 152.04922 14090 ft 395 kts 97°
2026-05-07 22:10 -33.90690 152.08230 14454 ft 398 kts 97°
2026-05-07 22:10 -33.90751 152.11586 14819 ft 402 kts 95°
2026-05-07 22:10 -33.90757 152.14916 15185 ft 405 kts 94°
2026-05-07 22:10 -33.90758 152.18299 15505 ft 408 kts 94°
2026-05-07 22:11 -33.90768 152.21698 15788 ft 413 kts 94°
2026-05-07 22:11 -33.90785 152.25108 16156 ft 415 kts 94°
2026-05-07 22:11 -33.90806 152.28622 16491 ft 418 kts 94°
2026-05-07 22:11 -33.90828 152.32127 16842 ft 421 kts 94°
2026-05-07 22:12 -33.90849 152.35656 17171 ft 424 kts 94°
2026-05-07 22:12 -33.90870 152.39210 17511 ft 427 kts 94°
2026-05-07 22:12 -33.90890 152.42813 17828 ft 430 kts 94°
2026-05-07 22:12 -33.90909 152.46416 18146 ft 433 kts 94°
2026-05-07 22:13 -33.90926 152.50043 18476 ft 436 kts 93°
2026-05-07 22:13 -33.90943 152.53665 18801 ft 437 kts 94°
2026-05-07 22:13 -33.90959 152.57321 19101 ft 439 kts 94°
2026-05-07 22:13 -33.90974 152.60999 19397 ft 442 kts 94°
2026-05-07 22:14 -33.90988 152.64720 19670 ft 444 kts 94°
2026-05-07 22:14 -33.91001 152.68438 19942 ft 446 kts 94°
2026-05-07 22:14 -33.91013 152.72175 20203 ft 449 kts 94°
2026-05-07 22:14 -33.91024 152.75932 20479 ft 451 kts 94°
2026-05-07 22:15 -33.91033 152.79683 20750 ft 453 kts 94°
2026-05-07 22:15 -33.91042 152.83480 21048 ft 456 kts 94°
2026-05-07 22:15 -33.91049 152.87298 21285 ft 458 kts 94°
2026-05-07 22:15 -33.91055 152.91159 21540 ft 460 kts 94°
2026-05-07 22:16 -33.91060 152.95015 21802 ft 463 kts 94°
2026-05-07 22:16 -33.91064 152.98891 22075 ft 465 kts 94°
2026-05-07 22:16 -33.91067 153.02811 22320 ft 467 kts 94°
2026-05-07 22:16 -33.91068 153.06725 22590 ft 470 kts 94°
2026-05-07 22:17 -33.91069 153.10658 22855 ft 472 kts 94°
2026-05-07 22:17 -33.91068 153.14583 23094 ft 474 kts 94°
2026-05-07 22:17 -33.91066 153.18556 23328 ft 476 kts 94°
2026-05-07 22:17 -33.91063 153.22535 23627 ft 477 kts 94°
2026-05-07 22:18 -33.91059 153.26533 23813 ft 480 kts 94°
2026-05-07 22:18 -33.91047 153.34613 24223 ft 484 kts 93°
2026-05-07 22:18 -33.91038 153.38666 24430 ft 486 kts 93°
2026-05-07 22:19 -33.91028 153.42709 24632 ft 488 kts 93°
2026-05-07 22:19 -33.91017 153.46800 24829 ft 492 kts 92°
2026-05-07 22:19 -33.91003 153.50914 25032 ft 493 kts 92°
2026-05-07 22:19 -33.90988 153.55073 25237 ft 496 kts 92°
2026-05-07 22:20 -33.90972 153.59224 25448 ft 498 kts 92°
2026-05-07 22:20 -33.90954 153.63393 25673 ft 500 kts 92°
2026-05-07 22:20 -33.90935 153.67610 25880 ft 503 kts 92°
2026-05-07 22:20 -33.90914 153.71762 26103 ft 505 kts 92°
2026-05-07 22:21 -33.90893 153.75991 26336 ft 508 kts 91°
2026-05-07 22:21 -33.90868 153.80307 26538 ft 511 kts 91°
2026-05-07 22:21 -33.90843 153.84557 26788 ft 513 kts 91°
2026-05-07 22:21 -33.90816 153.88856 27027 ft 516 kts 91°
2026-05-07 22:22 -33.90787 153.93178 27240 ft 519 kts 91°
2026-05-07 22:22 -33.90756 153.97551 27493 ft 521 kts 90°
2026-05-07 22:22 -33.90724 154.01916 27723 ft 524 kts 90°
2026-05-07 22:22 -33.90691 154.06305 27981 ft 527 kts 90°
2026-05-07 22:23 -33.90656 154.10702 28125 ft 532 kts 90°
2026-05-07 22:23 -33.90618 154.15152 28370 ft 534 kts 90°
2026-05-07 22:23 -33.90579 154.19623 28594 ft 536 kts 89°
2026-05-07 22:23 -33.90538 154.24096 28913 ft 537 kts 89°
2026-05-07 22:24 -33.90494 154.28626 29129 ft 540 kts 89°
2026-05-07 22:24 -33.90450 154.33147 29368 ft 543 kts 89°
2026-05-07 22:24 -33.90404 154.37691 29607 ft 546 kts 88°
2026-05-07 22:24 -33.90356 154.42237 29791 ft 549 kts 88°
2026-05-07 22:25 -33.90305 154.46834 30052 ft 552 kts 88°
2026-05-07 22:25 -33.90203 154.51448 30266 ft 553 kts 83°
2026-05-07 22:25 -33.89788 154.56068 30517 ft 553 kts 81°
2026-05-07 22:25 -33.89388 154.60671 30764 ft 555 kts 82°
2026-05-07 22:26 -33.89009 154.65291 30995 ft 557 kts 82°
2026-05-07 22:26 -33.88231 154.74708 31007 ft 573 kts 82°
2026-05-07 22:27 -33.87418 154.84348 31002 ft 587 kts 82°
2026-05-07 22:27 -33.86589 154.94074 31005 ft 587 kts 82°
2026-05-07 22:28 -33.85746 155.03865 30991 ft 589 kts 82°
2026-05-07 22:28 -33.84876 155.13587 30989 ft 582 kts 78°
2026-05-07 22:28 -33.83987 155.18258 30990 ft 575 kts 67°
2026-05-07 22:29 -33.82459 155.22721 30995 ft 567 kts 55°
2026-05-07 22:29 -33.78355 155.30654 30996 ft 562 kts 51°
2026-05-07 22:30 -33.74306 155.38681 30991 ft 563 kts 52°
2026-05-07 22:30 -33.70253 155.46736 30987 ft 562 kts 52°
2026-05-07 22:31 -33.66222 155.54705 30994 ft 558 kts 52°
2026-05-07 22:31 -33.62199 155.62628 31007 ft 559 kts 52°
2026-05-07 22:32 -33.58146 155.70596 30991 ft 558 kts 51°
2026-05-07 22:32 -33.54105 155.78521 30989 ft 558 kts 51°
2026-05-07 22:33 -33.50070 155.86417 30995 ft 558 kts 51°
2026-05-07 22:33 -33.45992 155.94383 31003 ft 558 kts 51°
2026-05-07 22:34 -33.41948 156.02264 30995 ft 558 kts 51°
2026-05-07 22:34 -33.37873 156.10187 30988 ft 558 kts 51°
2026-05-07 22:35 -33.33819 156.18058 30984 ft 554 kts 51°
2026-05-07 22:35 -33.29806 156.25832 31006 ft 552 kts 51°
2026-05-07 22:36 -33.25766 156.33634 30991 ft 553 kts 51°
2026-05-07 22:36 -33.21730 156.41481 30990 ft 555 kts 53°
2026-05-07 22:37 -33.18008 156.49532 30953 ft 557 kts 55°
2026-05-07 22:37 -33.14272 156.57633 31002 ft 553 kts 54°
2026-05-07 22:38 -33.10537 156.65603 30989 ft 553 kts 54°
2026-05-07 22:38 -33.06776 156.73590 30994 ft 553 kts 54°
2026-05-07 22:39 -33.02995 156.81596 30987 ft 554 kts 54°
2026-05-07 22:39 -32.99237 156.89535 31011 ft 552 kts 54°
2026-05-07 22:40 -32.95470 156.97477 30990 ft 551 kts 54°
2026-05-07 22:40 -32.91687 157.05432 30991 ft 552 kts 54°
2026-05-07 22:41 -32.87898 157.13384 30987 ft 552 kts 54°
2026-05-07 22:41 -32.84116 157.21304 30994 ft 552 kts 54°
2026-05-07 22:42 -32.80347 157.29179 30985 ft 551 kts 54°
2026-05-07 22:42 -32.76564 157.37067 30993 ft 550 kts 54°
2026-05-07 22:43 -32.72763 157.44975 30988 ft 551 kts 54°
2026-05-07 22:43 -32.68980 157.52827 30992 ft 551 kts 54°
2026-05-07 22:44 -32.65185 157.60692 30961 ft 549 kts 54°
2026-05-07 22:44 -32.61378 157.68560 30989 ft 549 kts 54°
2026-05-07 22:45 -32.57577 157.76400 30993 ft 550 kts 53°
2026-05-07 22:45 -32.53758 157.84262 30990 ft 550 kts 53°
2026-05-07 22:46 -32.49962 157.92061 30987 ft 549 kts 53°
2026-05-07 22:46 -32.46152 157.99868 31003 ft 549 kts 53°
2026-05-07 22:47 -32.42323 158.07700 30988 ft 549 kts 53°
2026-05-07 22:47 -32.38503 158.15496 30991 ft 549 kts 53°
2026-05-07 22:48 -32.34691 158.23260 30990 ft 549 kts 53°
2026-05-07 22:48 -32.30851 158.31065 30991 ft 548 kts 53°